EW0364 Weather Reports


time (UTC)temp
F
wind
direction
speed
knots
gust
knots
rain 1hr
in
rain 24hr
in
rain mn
in
humidity
%
barometer
mb
20260507060505 55 284 0.0 2.6 0.00 0.17 0.00 96 1005.9
20260507055605 55 247 0.9 2.6 0.00 0.17 0.00 96 1005.9
20260507054705 55 255 0.9 3.5 0.00 0.17 0.00 96 1005.9
20260507053805 55 284 0.9 3.5 0.00 0.17 0.00 96 1006.1
20260507052905 55 271 1.7 5.2 0.00 0.17 0.00 96 1006.3
20260507052005 55 273 2.6 6.1 0.00 0.17 0.00 96 1006.4
20260507051105 55 264 2.6 7.0 0.00 0.17 0.00 96 1006.6
20260507050205 55 250 1.7 5.2 0.00 0.17 0.00 96 1006.4
20260507045306 55 233 1.7 7.0 0.00 0.17 0.00 96 1006.5
20260507044405 55 218 0.9 4.3 0.00 0.17 0.00 96 1006.5
20260507042605 55 247 1.7 4.3 0.00 0.17 0.00 96 1006.4
20260507041705 55 220 1.7 6.1 0.00 0.17 0.00 96 1006.6
20260507040805 55 206 2.6 7.0 0.00 0.17 0.00 96 1006.5
20260507035905 55 221 2.6 11.3 0.00 0.17 0.17 96 1006.7
20260507035005 55 207 2.6 7.8 0.00 0.17 0.17 96 1006.7
20260507034105 55 223 2.6 9.6 0.00 0.17 0.17 96 1006.7
20260507032306 55 247 3.5 8.7 0.00 0.17 0.17 96 1007.1
20260507031405 55 233 4.3 11.3 0.00 0.17 0.17 95 1006.9
20260507030505 55 236 5.2 12.2 0.00 0.17 0.17 95 1006.9
20260507025605 55 230 3.5 9.6 0.00 0.17 0.17 95 1006.8
20260507024704 55 205 5.2 15.6 0.00 0.17 0.17 95 1006.5
20260507023805 55 216 4.3 9.6 0.00 0.17 0.17 95 1006.8
20260507022905 55 216 6.1 14.8 0.00 0.17 0.17 95 1006.9
20260507022005 56 212 5.2 13.0 0.00 0.17 0.17 95 1007.0
20260507020204 56 220 5.2 13.9 0.00 0.17 0.17 95 1007.3
20260507015306 56 224 6.1 14.8 0.00 0.17 0.17 95 1007.4
20260507014405 56 222 6.1 13.0 0.00 0.17 0.17 95 1007.5
20260507013505 56 234 4.3 13.0 0.00 0.17 0.17 95 1007.6
20260507012604 56 238 6.1 13.0 0.00 0.17 0.17 95 1007.7
20260507010804 56 239 5.2 16.5 0.00 0.17 0.17 95 1007.8
20260507005004 56 228 6.1 15.6 0.01 0.17 0.17 95 1007.7
20260507003204 56 234 6.1 14.8 0.02 0.17 0.17 95 1007.6
20260507002306 57 228 5.2 14.8 0.04 0.17 0.17 95 1007.6
20260507001404 57 221 7.0 13.9 0.05 0.17 0.17 95 1007.6
20260507000505 57 226 8.7 18.2 0.05 0.16 0.16 95 1007.7
20260506235604 57 223 7.8 20.0 0.06 0.16 0.16 95 1007.6
20260506234704 57 216 7.8 18.2 0.09 0.16 0.16 95 1007.6
20260506233804 57 215 6.1 15.6 0.09 0.15 0.15 94 1007.4
20260506232004 56 196 6.1 13.0 0.08 0.13 0.13 94 1007.4
20260506231104 56 196 7.0 16.5 0.07 0.11 0.11 93 1007.3
20260506230204 56 207 7.0 16.5 0.08 0.11 0.11 93 1007.5
20260506225306 57 203 8.7 21.7 0.06 0.08 0.09 92 1007.6
20260506224404 57 211 7.8 16.5 0.06 0.07 0.07 92 1007.7
20260506222604 57 215 6.1 14.8 0.04 0.05 0.05 91 1007.9
20260506221704 57 210 8.7 17.4 0.04 0.05 0.05 91 1008.1
20260506220804 57 206 6.1 16.5 0.02 0.03 0.03 91 1008.2
20260506215904 57 199 5.2 11.3 0.02 0.03 0.03 90 1008.2
20260506215005 58 208 6.1 15.6 0.01 0.02 0.02 89 1008.1
20260506214104 58 205 6.1 13.9 0.00 0.01 0.01 89 1008.2
20260506213204 58 199 7.0 15.6 0.01 0.01 0.01 89 1008.1
20260506212306 58 205 7.0 17.4 0.01 0.01 0.01 88 1008.4
20260506211404 58 204 8.7 16.5 0.01 0.01 0.01 88 1008.5
20260506210504 58 203 8.7 20.9 0.01 0.01 0.01 87 1008.6
20260506205604 59 212 8.7 20.9 0.01 0.01 0.01 87 1008.6
20260506203804 59 214 9.6 20.0 0.01 0.01 0.01 87 1008.6
20260506202904 59 201 7.8 16.5 0.00 0.00 0.00 87 1008.7
20260506202004 59 208 7.8 16.5 0.00 0.00 0.00 87 1008.8
20260506200204 59 202 8.7 18.2 0.00 0.00 0.00 84 1008.9
20260506195306 59 210 7.0 17.4 0.00 0.00 0.00 84 1009.1
20260506193504 60 198 8.7 26.1 0.00 0.00 0.00 83 1009.3
20260506192603 60 204 7.8 26.1 0.00 0.00 0.00 83 1009.4
20260506191704 60 207 7.8 15.6 0.00 0.00 0.00 83 1009.4
20260506190803 60 205 8.7 21.7 0.00 0.00 0.00 82 1009.5
20260506185003 60 207 7.8 20.0 0.00 0.00 0.00 81 1009.5
20260506184104 61 205 7.8 19.1 0.00 0.00 0.00 81 1009.4
20260506183204 61 211 7.0 21.7 0.00 0.00 0.00 80 1009.9
20260506180504 62 205 7.8 20.0 0.00 0.00 0.00 80 1010.1
20260506175603 62 211 8.7 23.5 0.00 0.00 0.00 79 1010.3
20260506174703 63 205 7.8 18.2 0.00 0.00 0.00 79 1010.7
20260506173803 62 201 9.6 23.5 0.00 0.00 0.00 80 1010.9
20260506172903 62 208 8.7 20.9 0.00 0.00 0.00 79 1010.5
20260506172003 62 202 9.6 20.9 0.00 0.00 0.00 80 1010.7
20260506171103 62 203 8.7 20.0 0.00 0.00 0.00 80 1010.8
20260506170203 62 209 8.7 20.9 0.00 0.00 0.00 80 1010.9
20260506165305 61 209 9.6 19.1 0.00 0.00 0.00 82 1011.1
20260506164403 61 212 8.7 22.6 0.00 0.00 0.00 81 1011.3
20260506163503 61 205 7.8 19.1 0.00 0.00 0.00 81 1011.4
20260506162603 62 210 7.0 17.4 0.00 0.00 0.00 80 1011.4
20260506161703 62 212 7.0 21.7 0.00 0.00 0.00 80 1011.5
20260506160803 63 210 8.7 17.4 0.00 0.00 0.00 79 1011.7
20260506155903 63 214 10.4 21.7 0.00 0.00 0.00 78 1011.7
20260506155003 63 211 8.7 16.5 0.00 0.00 0.00 78 1011.8
20260506154103 62 210 11.3 22.6 0.00 0.00 0.00 80 1011.9
20260506153203 62 203 9.6 21.7 0.00 0.00 0.00 79 1011.8
20260506152305 63 220 9.6 22.6 0.00 0.00 0.00 80 1012.0
20260506151403 62 205 10.4 23.5 0.00 0.00 0.00 80 1012.0
20260506150504 62 199 9.6 19.1 0.00 0.00 0.00 80 1012.0
20260506145603 62 208 8.7 20.0 0.00 0.00 0.00 80 1011.9
20260506144703 62 216 8.7 18.2 0.00 0.00 0.00 81 1012.0
20260506143803 61 203 9.6 22.6 0.00 0.00 0.00 81 1011.9
20260506142903 61 209 8.7 22.6 0.00 0.00 0.00 80 1012.0
20260506141103 62 219 8.7 16.5 0.00 0.00 0.00 80 1011.7
20260506140203 62 212 8.7 20.0 0.00 0.00 0.00 80 1011.8
20260506134403 62 219 8.7 15.6 0.00 0.00 0.00 80 1012.1
20260506133503 62 211 7.0 18.2 0.00 0.00 0.00 80 1012.1
20260506132604 62 211 7.0 15.6 0.00 0.00 0.00 81 1012.2
20260506131703 61 225 8.7 19.1 0.00 0.00 0.00 82 1012.1
20260506130803 61 215 9.6 23.5 0.00 0.00 0.00 82 1012.0
20260506125903 61 209 8.7 18.2 0.00 0.00 0.00 83 1011.9
20260506125003 61 209 9.6 19.1 0.00 0.00 0.00 82 1012.0
20260506122305 60 215 6.1 14.8 0.00 0.00 0.00 84 1012.1
20260506121403 60 221 9.6 24.3 0.00 0.00 0.00 85 1012.0
20260506120503 59 212 7.8 19.1 0.00 0.00 0.00 85 1012.2
20260506115602 59 231 7.8 18.2 0.00 0.00 0.00 85 1012.3
20260506114703 59 222 7.0 21.7 0.00 0.00 0.00 86 1012.4
20260506113803 58 225 6.1 18.2 0.00 0.00 0.00 87 1012.5
20260506112902 58 211 6.1 17.4 0.00 0.00 0.00 88 1012.4
20260506112003 58 217 7.0 18.2 0.00 0.00 0.00 88 1012.4
20260506111103 58 218 5.2 13.9 0.00 0.00 0.00 88 1012.4
20260506110202 57 212 7.0 18.2 0.00 0.00 0.00 88 1012.4
20260506105305 57 215 6.1 13.9 0.00 0.00 0.00 89 1012.5
20260506104403 56 216 6.1 13.9 0.00 0.00 0.00 89 1012.5
20260506102603 56 209 7.0 14.8 0.00 0.00 0.00 90 1012.2
20260506094102 56 213 6.1 13.9 0.00 0.00 0.00 90 1012.2
20260506093202 56 212 6.1 15.6 0.00 0.00 0.00 90 1012.2
20260506092306 56 219 6.1 19.1 0.00 0.00 0.00 90 1012.2
20260506091402 56 214 5.2 13.9 0.00 0.00 0.00 90 1012.3
20260506090502 56 217 5.2 14.8 0.00 0.00 0.00 89 1012.4
20260506085602 57 212 5.2 16.5 0.00 0.00 0.00 89 1012.4
20260506084702 57 213 7.0 13.9 0.00 0.00 0.00 89 1012.4
20260506083802 57 215 5.2 13.0 0.00 0.00 0.00 89 1012.5
20260506082902 57 219 7.0 21.7 0.00 0.00 0.00 89 1012.5
20260506082002 57 221 7.0 18.2 0.00 0.00 0.00 89 1012.5
20260506081102 57 226 7.0 18.2 0.00 0.00 0.00 89 1012.4
20260506080202 57 222 6.1 13.9 0.00 0.00 0.00 89 1012.5
20260506073502 57 216 7.8 21.7 0.00 0.00 0.00 90 1012.5
20260506072602 56 224 7.0 14.8 0.00 0.00 0.00 90 1012.4
20260506071702 56 213 7.0 13.9 0.00 0.00 0.00 89 1012.5
20260506062305 57 215 6.1 14.8 0.00 0.00 0.00 87 1012.2
20260506061402 58 220 7.8 18.2 0.00 0.00 0.00 87 1012.3